Погода в Ляховичах

Беларусь     53˚02′22″N   26˚15′47″E
темп.,
°C
ветер,
м/с
пор.,
м/с
влажн.,
%
обл.,
%
осадки,
мм/ч
давл.,
гПа
погр.,
м
5 декабря, сб
сб500:00+4˚юв91792100 0.0 1018635
03:00+4˚юв8159198 0.0 1019573
06:00+3˚юв71591100 0.0 1019528
09:00+4˚юв71492100 0.0 1021507
12:00+4˚юв71391100 0.0 1022542
15:00+4˚юв71490100 0.0 1023553
18:00+4˚юв81589100 0.0 1023540
21:00+3˚юв7148995 0.0 1024604
6 декабря, вс
вс600:00+3˚юв8148798 0.0 1025660
03:00+2˚юв7138799 0.0 1026647
06:00+1˚юв7138788 0.0 1026639
09:00юв8158691 0.0 1028584
12:00юв8157954 0.0 1028588
15:00+2˚юв8166827 0.0 1028685
18:00юв715630 0.0 1028544
21:00−2˚юв816600 0.0 1029492
7 декабря, пн
пн700:00−2˚юв815570 0.0 1029530
03:00−3˚юв816620 0.0 1029563
06:00−3˚юв816630 0.0 1028595
09:00−4˚юв816630 0.0 1028594
12:00−3˚юв915550 0.0 1028665
15:00−2˚юв916500 0.0 1027671
18:00−4˚вюв815550 0.0 1027614
21:00−4˚юв816640 0.0 1026746
8 декабря, вт
вт800:00−4˚вюв815712 0.0 1026651
03:00−5˚вюв715702 0.0 1026577
06:00−5˚вюв815660 0.0 1025575
09:00−5˚вюв815660 0.0 1024612
12:00−4˚вюв814660 0.0 1024630
15:00−4˚вюв813650 0.0 1024636
18:00−4˚вюв8136955 0.0 1023640
21:00−4˚юв7127274 0.0 1024628
9 декабря, ср
ср900:00−5˚юв6118097 0.0 1024540
03:00−5˚вюв6118599 0.0 1024471
06:00−4˚вюв6108793 0.1 1023429
09:00−3˚вюв71165100 0.0 1024525
12:00−3˚вюв71164100 0.0 1025523
15:00−3˚вюв71180100 0.0 1023513
18:00−3˚вюв71278100 0.0 1023507
21:00−3˚вюв71287100 0.1 1022456